Address 0xb58240ad540e2b6a02f171ca47ddf7f022e987d2 4

 
 
Txn Hash Method
Block
From
To
Value [Txn Fee]
0x9204c3c3a16bca417994d4d0cbaea3470882b27ccf2da9add6e325298329a58bAdd Liquidity Wi...350982482022-11-02 6:28:0026 days 2 hrs ago0xb58240ad540e2b6a02f171ca47ddf7f022e987d2OUT 0x8fed083364938080dc126e32290907296e57af499,220 MATIC0.054507718611 64.399935032
0x31831c936b99ac34ede63418647b0c989e69610b7dbcc9c46db65cec89094f43Approve350982422022-11-02 6:27:4826 days 2 hrs ago0xb58240ad540e2b6a02f171ca47ddf7f022e987d2OUT Polygon: WMATIC Token0 MATIC0.003011336152 64.903682411
0x57e7a7ced1eb09cb60ad70f59b94895810ecac79463068369da0600444ecddbfWithdraw ETH350982192022-11-02 6:26:5826 days 2 hrs ago0xb58240ad540e2b6a02f171ca47ddf7f022e987d2OUT 0xb880e6ade8709969b9fd2501820e052581ac29cf0 MATIC0.019410113688 62.77344349
0x0f2b55d0ba8230765eaf9da0d5a594e916b50f73b5b489ea138fd3d8ca747f93Deposit Token350982082022-11-02 6:26:3626 days 2 hrs ago0xb58240ad540e2b6a02f171ca47ddf7f022e987d2OUT 0x6dbadf2a3e53885076f1d30b6198e560830cb4bb0 MATIC0.014334125731 63.289794119
0x84f57e44425f0bad09b0cbe6da5bface9e74c922c1c5c00606483374a89f52aaApprove350982012022-11-02 6:26:2226 days 2 hrs ago0xb58240ad540e2b6a02f171ca47ddf7f022e987d2OUT Meshswap: MESH Token0 MATIC0.002918947179 62.896144696
0xeef0f4bd3c4afd37c4d799fc61ca7110ba1561e4452f8b3e6bf420765c83bd2eClaim Reward350981872022-11-02 6:25:5426 days 2 hrs ago0xb58240ad540e2b6a02f171ca47ddf7f022e987d2OUT 0xb880e6ade8709969b9fd2501820e052581ac29cf0 MATIC0.012183284137 67.330305601
0x35f2239181b5a2a6babab5233c89abba1b0677d04188416dafde374646191e66Deposit ETH322597052022-08-24 7:37:1996 days 1 hr ago0xb58240ad540e2b6a02f171ca47ddf7f022e987d2OUT 0xb880e6ade8709969b9fd2501820e052581ac29cf5,000 MATIC0.148371000361 500.000001217
0x36981f72b005e5bc2e03af9288161f4162b0e5dc8c040cce1a76c95f5f1847ffDeposit ETH322596912022-08-24 7:36:5196 days 1 hr ago0xb58240ad540e2b6a02f171ca47ddf7f022e987d2OUT 0xb880e6ade8709969b9fd2501820e052581ac29cf50,000 MATIC0.114277500397 500.000001737
0xe294b47d2d12280fb64faca133a6f7fbb6f05b7efd4d0b928d316cf41ce7b400Transfer312243062022-07-28 5:13:14123 days 3 hrs ago0x27f988b5e8e3ebf7f2b49ffecb751843e9398fe5 IN 0xb58240ad540e2b6a02f171ca47ddf7f022e987d20.00111001 MATIC0.00063 30.000000013
[ Download CSV Export 
Latest 25 internal transaction
Parent Txn Hash Block From To Value
0x66f4d64430eb21dce64be2ad2b88e9d5e3c057f5eaad82a01e6bb423f7ab2246360935992022-11-26 14:15:561 day 18 hrs ago 0x89c527764f03bcb7dc469707b23b79c1d7beb7800xb58240ad540e2b6a02f171ca47ddf7f022e987d23 MATIC
0x60093066632dbcb7336e681fe39a7a88e9f61818e5ceb8895db0fe8cb84c5b0c360549502022-11-25 15:54:352 days 16 hrs ago 0x89c527764f03bcb7dc469707b23b79c1d7beb7800xb58240ad540e2b6a02f171ca47ddf7f022e987d23 MATIC
0x612007e1eaebde804a4c6b22eb9cecc3940824078ff25e11c1095b6f6d3a0ee1360511992022-11-25 13:45:352 days 18 hrs ago 0x89c527764f03bcb7dc469707b23b79c1d7beb7800xb58240ad540e2b6a02f171ca47ddf7f022e987d23 MATIC
0xd308cf8613e89d791b10608cc1406a34b536dc121ce447ec26acefc75116c7e6360511502022-11-25 13:43:572 days 18 hrs ago 0x89c527764f03bcb7dc469707b23b79c1d7beb7800xb58240ad540e2b6a02f171ca47ddf7f022e987d23 MATIC
0x931876bdf066e121b3506bb337bcdbd28290c78e4d3939b2e84125b73bed6e02360507692022-11-25 13:30:512 days 19 hrs ago 0x89c527764f03bcb7dc469707b23b79c1d7beb7800xb58240ad540e2b6a02f171ca47ddf7f022e987d23 MATIC
0x429a1954cc26205a853c63c15831b5aed1f6262a1fa15ec747662592740c604e360487742022-11-25 12:22:142 days 20 hrs ago 0x89c527764f03bcb7dc469707b23b79c1d7beb7800xb58240ad540e2b6a02f171ca47ddf7f022e987d23 MATIC
0xc6ece605160bd40a1046148e8b52f3a53bb86a4b6bd9f39f3ce7cf9abcd8f8d7360486662022-11-25 12:18:302 days 20 hrs ago 0x89c527764f03bcb7dc469707b23b79c1d7beb7800xb58240ad540e2b6a02f171ca47ddf7f022e987d23 MATIC
0x6f7d5fae5704759d167e60d0048df5d70e34d2a4ba859f3341d956929b36dc62360479942022-11-25 11:55:222 days 20 hrs ago 0x89c527764f03bcb7dc469707b23b79c1d7beb7800xb58240ad540e2b6a02f171ca47ddf7f022e987d23 MATIC
0x2fe52acdbe503d62f95f7482423327b750c8b82033fd9aad680479322964002d360430272022-11-25 9:03:042 days 23 hrs ago 0x89c527764f03bcb7dc469707b23b79c1d7beb7800xb58240ad540e2b6a02f171ca47ddf7f022e987d23 MATIC
0x087080b2326f8dcc016afd811df116d273432bd9970669a36d8ef7bd02c3c9c7360429932022-11-25 9:01:122 days 23 hrs ago 0x89c527764f03bcb7dc469707b23b79c1d7beb7800xb58240ad540e2b6a02f171ca47ddf7f022e987d23 MATIC
0x2ce671d14e0ac8a9dcf1caecaa6abe1e5e63e4eaf699614847328173b22cea8a360426462022-11-25 8:47:052 days 23 hrs ago 0x89c527764f03bcb7dc469707b23b79c1d7beb7800xb58240ad540e2b6a02f171ca47ddf7f022e987d23 MATIC
0x5f7d559eea16d1598d0e5e38e6be4c105573052249472a45be8f10b3bc238ccc360224632022-11-24 21:06:403 days 11 hrs ago 0x89c527764f03bcb7dc469707b23b79c1d7beb7800xb58240ad540e2b6a02f171ca47ddf7f022e987d23 MATIC
0xe03c89db254727208775a9068351fd7e674c4ac303ea24e552a2bc51e3539436360206392022-11-24 20:03:473 days 12 hrs ago 0x89c527764f03bcb7dc469707b23b79c1d7beb7800xb58240ad540e2b6a02f171ca47ddf7f022e987d23 MATIC
0xfce133c752a5551c137a87227d009808b6f25b0ab48e7d7734341c0544e1323d360144692022-11-24 16:26:183 days 16 hrs ago 0x89c527764f03bcb7dc469707b23b79c1d7beb7800xb58240ad540e2b6a02f171ca47ddf7f022e987d23 MATIC
0x357f4845c6222c4d45563369e7e1884ca82561307e1ad86f97faeaa0782ae8fd360007882022-11-24 8:27:124 days 16 mins ago 0x89c527764f03bcb7dc469707b23b79c1d7beb7800xb58240ad540e2b6a02f171ca47ddf7f022e987d23 MATIC
0x4309ac5199c2939515010231e373688c2bb88edf14299a89756a000ced587d47359997202022-11-24 7:48:184 days 55 mins ago 0x89c527764f03bcb7dc469707b23b79c1d7beb7800xb58240ad540e2b6a02f171ca47ddf7f022e987d23 MATIC
0xb66837a3cce85536999772e452aece8a1f11bb321b15da936ca4483f52b7a3da359996932022-11-24 7:47:244 days 55 mins ago 0x89c527764f03bcb7dc469707b23b79c1d7beb7800xb58240ad540e2b6a02f171ca47ddf7f022e987d23 MATIC
0x983f9095af4f983f23a519ec178a508fa73128b49af452347f39e65412437116359664282022-11-23 12:26:544 days 20 hrs ago 0x6bd8e3beec87176ba9c705c9507aa5e6f0e6706f0xb58240ad540e2b6a02f171ca47ddf7f022e987d215 MATIC
0xeb15f795839af656ab45fa03ad5bdc3c6d41d51d67b88d20eb4e9b71f3e5f4b8359531902022-11-23 4:32:245 days 4 hrs ago 0x6bd8e3beec87176ba9c705c9507aa5e6f0e6706f0xb58240ad540e2b6a02f171ca47ddf7f022e987d215 MATIC
0xa09c684f90af21915715d4480d668167ac993727dfe95df2684b10455131dfda359528612022-11-23 4:18:585 days 4 hrs ago 0x89c527764f03bcb7dc469707b23b79c1d7beb7800xb58240ad540e2b6a02f171ca47ddf7f022e987d23 MATIC
0x7b74ea33b649886633859d8ceb370811a2001774741486a237db2c8ca7aeed63359425282022-11-22 22:19:365 days 10 hrs ago 0x89c527764f03bcb7dc469707b23b79c1d7beb7800xb58240ad540e2b6a02f171ca47ddf7f022e987d23 MATIC
0x244f1e6dc1f44d0b41936a43160088a63040bbd4c228570a8c39498bc084bf66359367732022-11-22 18:57:345 days 13 hrs ago 0x89c527764f03bcb7dc469707b23b79c1d7beb7800xb58240ad540e2b6a02f171ca47ddf7f022e987d23 MATIC
0xe9e31bc97895738ea6a64c68953d5631300e97b09c26005fe0cfc020e6861509359358522022-11-22 18:25:445 days 14 hrs ago 0x89c527764f03bcb7dc469707b23b79c1d7beb7800xb58240ad540e2b6a02f171ca47ddf7f022e987d23 MATIC
0x79489061ceb9e6fd99757bcf3946facdbaac050abf9ec69186561ad513a853d7359329942022-11-22 16:45:245 days 15 hrs ago 0x89c527764f03bcb7dc469707b23b79c1d7beb7800xb58240ad540e2b6a02f171ca47ddf7f022e987d23 MATIC
0x83e0b8069fa2082f337ccaac00c2d7521aabea0ee656950e27452d424a5dd1c8359298032022-11-22 14:55:425 days 17 hrs ago 0x89c527764f03bcb7dc469707b23b79c1d7beb7800xb58240ad540e2b6a02f171ca47ddf7f022e987d23 MATIC
[ Download CSV Export 
Loading

Contract Name:
0 MATIC

Compiler Version
0

Optimization Enabled:
0 MATIC

Other Settings:
-NA-
Block Transaction Gas Used Reward
Age Block Fee Address BC Fee Address Voting Power Jailed Incoming
Block Uncle Number Difficulty Gas Used Reward
Loading
Loading
Make sure to use the "Vote Down" button for any spammy posts, and the "Vote Up" for interesting conversations.